星链-30392 (STARLINK-30392 )

导读

STARLINK-30392是美国太空探索技术公司SpaceX星链星座的成员,于2023年9月12日发射升空。星链项目旨在构建全球卫星互联网星座,为全球各地提供高速低延迟宽带网络服务,该卫星入轨后承担相关通信服务,进一步完善了星链星座的全球覆盖能力,也延续了美国太空星座的快速部署节奏。

Basic Information
目录编号:
57855
目录名称:
STARLINK-30392
国际标识:
2023-141R
轨道中心:
EARTH
卫星名称:
星链-30392
卫星全名:
星链-30392 (STARLINK-30392 )
卫星状态:
在轨 (已飞行1088 天)
发射日期:
2023-09-12 UTC
国别 :
美国 (US)
星等 :
--
Orbit Information
数据来源 国际轨道数据 AOE轨道数据
星历时间 2026-09-04T12:23:23+0800
5小时前
查看轨道信息
2026-09-01T01:00:00+0800
3天前
查看轨道信息
半长轴 6840.864km 6840.825km
偏心率 0.0001691 0.0001244
轨道倾角 53.160° 53.158°
近地点辐角 69.891° 76.392°
升交点赤经 173.800° 190.042°
平近点角 290.227° 160.195°
近地点 461.57km 461.837km
远地点 463.884km 463.539km
周期 93.848分钟 93.847分钟
每日圈数 15.343922 15.344053
Detailed Information
固有亮度:
5
最大亮度:
0.3
卫星平台:
Starlink v2.0 mini
覆盖范围:
全球
运营商:
太空探索技术公司
运营商所在国:
美国
制造商(研发单位):
太空探索技术公司
制造商所在国:
美国
使用方式:
暂无
Satellite Introduction
星链(Starlink)计划是由太空探索技术公司(SpaceX)提出的一个巨型低轨卫星互联网星座项目,计划在2019年至2024年间在太空搭建由约1.2万颗卫星组成的“星链”网络,其中1584颗将部署在地球上空550千米处的近地轨道,并从2020年开始工作。该卫星仍在工作。
2D Orbit Map
3D Orbit Map
Orbit Altitude Analysis Chart
Orbit Inclination Analysis Chart
Orbit Comprehensive Analysis Chart
View Comprehensive Chart